Date String (YYYY-MM-DD hh:mm:ss) UTC,Instrument flags,absolute air pressure of the measurement (hPa),sample flow rate (lpm),inlet stack bypass flow (lpm),air temperature of the measurement (°C),ambient temperature measured by the external sensor (°C),aerosol sample conditioner tube jacket temperature (°C),OPC LED temperature (°C),internal box temperature (°C),relative humidity of the measurement (%),span deviation,mass concentration of particles derived from Lorenz-Mie calculation of OPC scattering (μg/m³),mass concentration of particles derived from Lorenz-Mie calculation of OPC scattering (μg/m³),mass concentration of particles derived from Lorenz-Mie calculation of OPC scattering (μg/m³)
DateTimeUTC,F1_M11,P_M11,Q1_M11,Q2_M11,T1_M11,T2_M11,T3_M11,T4_M11,T5_M11,U1_M11,ZSPAN_M11,X0_M11,X2_M11,X1_M11
2023-09-12 08:00:00,SystemResetWarning,0835.6,5.00,000.00,028.8,027.3,000.0,037.1,030.4,25.1,0001.4,0009.82,0005.23,0004.96
2023-09-12 08:01:00,SystemResetWarning,0835.7,5.02,000.00,028.8,027.3,000.0,037.1,030.4,25.0,0001.4,0009.78,0005.20,0004.95
2023-09-12 08:02:00,SystemResetWarning,0835.7,5.01,000.00,028.8,027.3,000.0,037.1,030.4,25.0,0000.8,0009.82,0005.22,0004.96
2023-09-12 08:03:00,SystemResetWarning,0835.5,4.99,000.00,028.8,027.3,000.0,037.1,030.4,25.0,0000.8,0009.78,0005.20,0004.97
2023-09-12 08:04:00,SystemResetWarning,0835.6,4.99,000.00,028.8,027.3,000.0,037.1,030.4,25.0,0000.9,0009.00,0005.19,0004.98
2023-09-12 08:05:00,SystemResetWarning,0835.6,4.99,000.00,028.8,027.3,000.0,037.1,030.4,25.0,0000.6,0009.00,0005.20,0004.97
2023-09-12 08:06:00,SystemResetWarning,0835.5,5.01,000.00,028.8,027.3,000.0,037.1,030.4,25.0,0000.5,0009.09,0005.22,0004.98
2023-09-12 08:07:00,SystemResetWarning,0835.5,5.01,000.00,028.8,027.3,000.0,037.2,030.4,24.9,0000.6,0009.28,0005.23,0004.98
2023-09-12 08:08:00,SystemResetWarning,0835.5,5.01,000.00,028.8,027.3,000.0,037.2,030.4,24.9,0000.7,0009.30,0005.24,0004.98
2023-09-12 08:09:00,SystemResetWarning,0835.5,4.99,000.00,028.8,027.3,000.0,037.2,030.4,24.8,0000.8,0009.57,0005.28,0004.99
2023-09-12 08:10:00,SystemResetWarning,0835.5,4.99,000.00,028.8,027.3,000.0,037.2,030.4,24.7,0000.2,0010.04,0005.30,0004.99
2023-09-12 08:11:00,SystemResetWarning,0835.5,5.00,000.00,028.9,027.3,000.0,037.2,030.4,24.8,0000.0,0009.67,0005.32,0005.00
2023-09-12 08:12:00,SystemResetWarning,0835.5,5.00,000.00,028.9,027.4,000.0,037.2,030.5,24.9,0000.2,0009.67,0005.34,0005.01
2023-09-12 08:13:00,SystemResetWarning,0835.5,5.00,000.00,028.9,027.4,000.0,037.2,030.5,25.3,0000.8,0009.67,0005.34,0005.00
2023-09-12 08:14:00,SystemResetWarning,0835.7,5.00,000.00,028.9,027.4,000.0,037.2,030.5,26.0,0000.8,0009.70,0005.34,0004.99
2023-09-12 08:15:00,SystemResetWarning,0835.6,5.00,000.00,028.9,027.5,000.0,037.2,030.5,25.8,0000.4,0009.71,0005.33,0004.96
2023-09-12 08:16:00,SystemResetWarning,0835.5,5.00,000.00,028.9,027.5,000.0,037.2,030.5,25.6,0000.6,0009.69,0005.31,0004.95
2023-09-12 08:17:00,SystemResetWarning,0835.5,5.00,000.00,028.9,027.5,000.0,037.2,030.5,25.4,0001.0,0009.17,0005.28,0004.95
2023-09-12 08:18:00,SystemResetWarning,0835.5,5.01,000.00,028.9,027.5,000.0,037.2,030.6,25.2,0001.3,0008.93,0005.26,0004.94
2023-09-12 08:19:00,SystemResetWarning,0835.5,5.00,000.00,028.9,027.5,000.0,037.2,030.6,25.0,0001.5,0008.86,0005.23,0004.92
2023-09-12 08:20:00,SystemResetWarning,0835.5,5.00,000.00,029.0,027.5,000.0,037.2,030.6,25.0,0000.7,0008.76,0005.21,0004.91
2023-09-12 08:21:00,SystemResetWarning,0835.5,5.00,000.00,029.0,027.5,000.0,037.2,030.5,24.8,0000.7,0008.15,0005.20,0004.91
2023-09-12 08:22:00,SystemResetWarning,0835.5,4.99,000.00,029.0,027.5,000.0,037.2,030.5,24.8,0000.3,0008.17,0005.19,0004.90
2023-09-12 08:23:00,SystemResetWarning,0835.5,5.00,000.00,029.0,027.5,000.0,037.2,030.5,25.0,0000.2,0008.10,0005.15,0004.88
2023-09-12 08:24:00,SystemResetWarning,0835.6,5.00,000.00,029.0,027.5,000.0,037.3,030.5,25.2,0000.1,0008.09,0005.13,0004.87
2023-09-12 08:25:00,SystemResetWarning,0835.5,5.00,000.00,029.0,027.5,000.0,037.3,030.6,25.3,0000.0,0008.07,0005.11,0004.85
2023-09-12 08:26:00,SystemResetWarning,0835.5,5.00,000.00,029.0,027.5,000.0,037.3,030.6,25.5,0000.3,0008.12,0005.12,0004.86
2023-09-12 08:27:00,SystemResetWarning,0835.5,5.00,000.00,029.0,027.6,000.0,037.3,030.6,25.8,0000.4,0008.29,0005.14,0004.85
2023-09-12 08:28:00,SystemResetWarning,0835.5,5.00,000.00,029.0,027.6,000.0,037.3,030.6,26.2,0000.4,0008.34,0005.16,0004.85
2023-09-12 08:29:00,SystemResetWarning,0835.5,5.00,000.00,029.0,027.6,000.0,037.3,030.6,26.8,0000.0,0008.40,0005.17,0004.83
2023-09-12 08:30:00,SystemResetWarning,0835.5,5.00,000.00,029.0,027.6,000.0,037.3,030.6,27.0,-000.8,0008.56,0005.19,0004.82
2023-09-12 08:31:00,SystemResetWarning,0835.5,5.00,000.00,029.0,027.6,000.0,037.3,030.6,27.4,-000.6,0008.81,0005.21,0004.81
2023-09-12 08:32:00,SystemResetWarning,0835.5,5.00,000.00,029.0,027.6,000.0,037.3,030.7,27.4,-000.2,0008.58,0005.21,0004.81
2023-09-12 08:33:00,SystemResetWarning,0835.5,5.00,000.00,029.0,027.6,000.0,037.3,030.7,26.9,0000.1,0008.57,0005.20,0004.78
2023-09-12 08:34:00,SystemResetWarning,0835.5,5.00,000.00,029.0,027.6,000.0,037.3,030.7,26.6,-000.2,0008.60,0005.19,0004.77
2023-09-12 08:35:00,SystemResetWarning,0835.5,5.01,000.00,029.1,027.6,000.0,037.4,030.7,26.4,-000.0,0008.55,0005.18,0004.77
2023-09-12 08:36:00,SystemResetWarning,0835.5,5.00,000.00,029.1,027.7,000.0,037.4,030.7,26.2,-000.5,0008.49,0005.16,0004.76
2023-09-12 08:37:00,SystemResetWarning,0835.5,4.99,000.00,029.1,027.7,000.0,037.4,030.7,26.0,-000.7,0008.47,0005.14,0004.75
2023-09-12 08:38:00,SystemResetWarning,0835.5,5.00,000.00,029.1,027.7,000.0,037.4,030.7,25.8,-001.0,0008.27,0005.09,0004.74
2023-09-12 08:39:00,SystemResetWarning,0835.5,5.00,000.00,029.1,027.7,000.0,037.4,030.7,25.6,-000.6,0008.17,0005.06,0004.73
2023-09-12 08:40:00,SystemResetWarning,0835.5,5.01,000.00,029.1,027.7,000.0,037.4,030.7,25.5,-000.4,0008.09,0005.03,0004.72
2023-09-12 08:41:00,SystemResetWarning,0835.5,5.00,000.00,029.1,027.7,000.0,037.4,030.7,25.5,-000.0,0008.00,0005.01,0004.73
2023-09-12 08:42:00,SystemResetWarning,0835.5,5.00,000.00,029.1,027.7,000.0,037.4,030.7,25.2,0000.5,0007.83,0005.02,0004.73
2023-09-12 08:43:00,SystemResetWarning,0835.5,4.99,000.00,029.1,027.7,000.0,037.4,030.7,25.0,0000.4,0007.73,0004.99,0004.71
2023-09-12 08:44:00,SystemResetWarning,0835.5,5.00,000.00,029.1,027.7,000.0,037.4,030.7,25.0,0000.2,0007.64,0004.97,0004.71
2023-09-12 08:45:00,SystemResetWarning,0835.5,5.00,000.00,029.1,027.7,000.0,037.4,030.7,25.4,0000.2,0007.78,0004.96,0004.72
2023-09-12 08:46:00,SystemResetWarning,0835.6,4.99,000.00,029.1,027.7,000.0,037.4,030.8,26.3,-000.2,0007.99,0004.98,0004.73
2023-09-12 08:47:00,SystemResetWarning,0835.5,5.01,000.00,029.2,027.7,000.0,037.4,030.8,26.5,0000.1,0008.02,0004.99,0004.74
2023-09-12 08:48:00,SystemResetWarning,0835.5,5.02,000.00,029.2,027.7,000.0,037.5,030.8,26.7,0000.4,0008.04,0005.00,0004.75
2023-09-12 08:49:00,SystemResetWarning,0835.5,4.99,000.00,029.2,027.7,000.0,037.5,030.8,26.7,0000.5,0008.05,0005.03,0004.78
2023-09-12 08:50:00,SystemResetWarning,0835.5,4.99,000.00,029.2,027.8,000.0,037.5,030.8,26.8,0000.5,0008.21,0005.09,0004.82
2023-09-12 08:51:00,SystemResetWarning,0835.5,5.00,000.00,029.2,027.8,000.0,037.5,030.8,26.6,0000.3,0008.35,0005.14,0004.87
2023-09-12 08:52:00,SystemResetWarning,0835.5,5.02,000.00,029.2,027.8,000.0,037.5,030.8,25.8,-000.6,0008.49,0005.19,0004.90
2023-09-12 08:53:00,SystemResetWarning,0835.5,4.99,000.00,029.2,027.8,000.0,037.5,030.8,25.2,-000.9,0008.49,0005.20,0004.92
2023-09-12 08:54:00,SystemResetWarning,0835.5,4.99,000.00,029.2,027.8,000.0,037.5,030.8,25.0,-000.9,0008.56,0005.23,0004.94
2023-09-12 08:55:00,SystemResetWarning,0835.4,5.00,000.00,029.2,027.8,000.0,037.5,030.8,24.9,-000.4,0008.68,0005.28,0004.96
2023-09-12 08:56:00,SystemResetWarning,0835.3,5.01,000.00,029.2,027.8,000.0,037.5,030.7,24.7,-000.3,0008.50,0005.30,0004.98
2023-09-12 08:57:00,SystemResetWarning,0835.3,5.01,000.00,029.2,027.7,000.0,037.5,030.7,24.5,-000.1,0008.64,0005.31,0004.98
2023-09-12 08:58:00,SystemResetWarning,0835.4,5.00,000.00,029.2,027.7,000.0,037.5,030.8,24.5,0000.2,0008.75,0005.32,0004.97
2023-09-12 08:59:00,SystemResetWarning,0835.3,4.99,000.00,029.2,027.7,000.0,037.5,030.8,24.5,0000.3,0008.79,0005.33,0004.98
